Change the Weather History Date:

Monday, October 8, 2012

  Actual Average Record
Temperature  
Mean Temperature 43 °F 58 °F  
Max Temperature 50 °F 69 °F 92 °F (2007)
Min Temperature 36 °F 46 °F 25 °F (1889)
Degree Days  
Heating Degree Days 22 8  
Month to date heating degree days 60 57  
Cooling Degree Days 0 1  
Month to date cooling degree days 12 8  
Year to date cooling degree days 1172 944  
Moisture  
Dew Point 38 °F    
Average Humidity 83    
Maximum Humidity 100    
Minimum Humidity 66    
Precipitation  
Precipitation 0.00 in 0.10 in 0.97 in (2008)
Month to date precipitation 0.34 0.72  
Year to date precipitation 33.14 32.59  
Sea Level Pressure  
Sea Level Pressure 30.25 in    
Wind  
Wind Speed 1 mph (SSE)    
Max Wind Speed 12 mph    
Max Gust Speed 16 mph    
Visibility 7 miles    
Events Fog    
T = Trace of Precipitation, MM = Missing Value Source: NWS Daily Summary

Daily Weather History Graph

Daily Weather History Graph

Search for Another Location

Airport or City:

Trip Planner

Search our weather history database for the weather conditions in past years. The results will help you decide how hot, cold, wet, or windy it might be!

Date:

Astronomy

Oct. 08, 2012 Rise Set
Actual Time 7:29 AM EDT 6:56 PM EDT
Civil Twilight 7:02 AM EDT 7:23 PM EDT
Nautical Twilight 6:31 AM EDT 7:54 PM EDT
Astronomical Twilight 5:59 AM EDT 8:25 PM EDT
Moon 12:09 AM EDT (10/8) 2:43 PM EDT (10/8)
Length of Visible Light 12h 21m
Length of Day
11h 27m
Waning Gibbous, 46% of the Moon is Illuminated
Oct 8
Waning Gibbous
Oct 15
New
Oct 21
First Quarter
Oct 29
Full
Nov 6
Last Quarter

Hourly Weather History & Observations

Time (EDT) Temp. Windchill Dew Point Humidity Pressure Visibility Wind Dir Wind Speed Gust Speed Precip Events Conditions
12:53 AM 41.0 °F - 39.0 °F 93% 30.22 in 8.0 mi Calm Calm - N/A   Overcast
1:53 AM 39.9 °F - 37.9 °F 93% 30.23 in 6.0 mi Calm Calm - N/A   Partly Cloudy
2:53 AM 39.0 °F - 37.0 °F 93% 30.23 in 6.0 mi Calm Calm - N/A   Clear
3:23 AM 39.2 °F - 37.4 °F 93% 30.23 in 6.0 mi Calm Calm - N/A   Partly Cloudy
3:53 AM 39.0 °F - 37.0 °F 93% 30.24 in 8.0 mi Calm Calm - N/A   Partly Cloudy
4:08 AM 39.2 °F - 37.4 °F 93% 30.23 in 6.0 mi Calm Calm - N/A   Mostly Cloudy
4:13 AM 39.2 °F - 37.4 °F 93% 30.23 in 1.8 mi Calm Calm - N/A   Mostly Cloudy
4:21 AM 39.2 °F - 37.4 °F 93% 30.24 in 0.2 mi Calm Calm - N/A Fog Fog
4:44 AM 39.2 °F - 39.2 °F 100% 30.24 in 0.8 mi Calm Calm - N/A   Overcast
4:53 AM 39.9 °F - 39.0 °F 97% 30.26 in 0.8 mi Calm Calm - N/A   Overcast
5:00 AM 39.2 °F - 39.2 °F 100% 30.25 in 1.5 mi Calm Calm - N/A   Overcast
5:12 AM 39.2 °F - 39.2 °F 100% 30.25 in 3.0 mi Calm Calm - N/A   Overcast
5:53 AM 39.9 °F - 39.0 °F 97% 30.28 in 4.0 mi Calm Calm - N/A   Overcast
6:53 AM 39.9 °F - 39.0 °F 97% 30.27 in 8.0 mi Calm Calm - N/A   Clear
7:53 AM 39.9 °F - 39.0 °F 97% 30.27 in 5.0 mi Calm Calm - N/A   Clear
8:53 AM 41.0 °F - 39.0 °F 93% 30.27 in 7.0 mi Calm Calm - N/A   Clear
9:53 AM 43.0 °F - 39.9 °F 89% 30.28 in 9.0 mi Calm Calm - N/A   Clear
10:53 AM 45.0 °F - 39.9 °F 82% 30.30 in 10.0 mi Calm Calm - N/A   Clear
11:53 AM 46.0 °F - 39.9 °F 79% 30.30 in 10.0 mi Calm Calm - N/A   Mostly Cloudy
12:53 PM 48.0 °F - 39.0 °F 71% 30.27 in 10.0 mi Calm Calm - N/A   Overcast
1:53 PM 48.0 °F - 37.0 °F 66% 30.27 in 10.0 mi Calm Calm - N/A   Overcast
2:30 PM 50.0 °F - 35.6 °F 58% 30.26 in 1.2 mi Variable 3.5 mph - N/A   Haze
2:38 PM 50.0 °F - 37.4 °F 62% 30.26 in 10.0 mi SSE 3.5 mph - N/A   Overcast
2:53 PM 48.9 °F - 37.0 °F 64% 30.26 in 10.0 mi South 10.4 mph - N/A   Overcast
3:53 PM 48.0 °F - 37.9 °F 68% 30.25 in 10.0 mi ESE 5.8 mph - N/A   Overcast
4:26 PM 46.4 °F 42.9 °F 37.4 °F 71% 30.23 in 10.0 mi South 6.9 mph - N/A   Overcast
4:43 PM 46.4 °F 43.5 °F 37.4 °F 71% 30.23 in 10.0 mi SE 5.8 mph - N/A   Overcast
4:53 PM 48.0 °F - 37.9 °F 68% 30.25 in 10.0 mi SSE 3.5 mph - N/A   Overcast
5:53 PM 48.0 °F - 37.9 °F 68% 30.25 in 10.0 mi Calm Calm - N/A   Overcast
6:49 PM 46.4 °F - 39.2 °F 76% 30.23 in 10.0 mi Calm Calm - N/A   Overcast
6:53 PM 46.9 °F - 39.0 °F 74% 30.24 in 10.0 mi Calm Calm - N/A   Overcast
7:53 PM 45.0 °F - 41.0 °F 86% 30.22 in 9.0 mi Calm Calm - N/A   Overcast
8:53 PM 44.1 °F - 39.9 °F 85% 30.24 in 10.0 mi Calm Calm - N/A   Scattered Clouds
9:53 PM 41.0 °F - 39.0 °F 93% 30.25 in 7.0 mi Calm Calm - N/A   Clear
10:41 PM 39.2 °F - 37.4 °F 93% 30.23 in 10.0 mi Calm Calm - N/A   Clear
10:53 PM 39.0 °F - 37.0 °F 93% 30.25 in 10.0 mi Calm Calm - N/A   Clear
11:10 PM 39.2 °F - 37.4 °F 93% 30.23 in 2.5 mi Calm Calm - N/A   Clear
11:53 PM 37.9 °F - 36.0 °F 93% 30.24 in 4.0 mi Calm Calm - N/A   Clear